Regional Weather Roundup
Issued by NWS Green Bay, WI

Home | Current Version | Previous Version | Graphics & Text | Print | Product List | Glossary Off
Versions: 1 2 3 4 5 6 7 8 9 10 11 12 13 14 15 16 17 18 19 20 21 22 23 24 25 26 27 28 29 30 31 32 33 34 35 36 37 38 39 40 41 42 43 44 45 46 47 48 49 50

000
ASUS43 KGRB 191611
RWRGRB

NORTH-CENTRAL AND NORTHEAST WISCONSIN REGIONAL WEATHER ROUNDUP
NATIONAL WEATHER SERVICE GREEN BAY WI
1000 AM CST SUN FEB 19 2017

WIZ005-009-010>012-018-019-191700-
NORTH CENTRAL WISCONSIN

CITY           SKY/WX    TMP DP  RH WIND       PRES   REMARKS
IRONWOOD       MOSUNNY   40  30  67 CALM      30.01R
MANITOWISH WTR MOSUNNY   37  30  74 CALM      30.00S
ARBOR VITAE    MOSUNNY   42  32  68 CALM      30.00S
EAGLE RIVER    MOSUNNY   41  28  60 CALM      30.00S
LAND O LAKES   CLOUDY    42  30  63 CALM      30.02R
RHINELANDER    MOSUNNY   42  32  67 CALM      30.01R
PHILLIPS       SUNNY     42  33  70 SE3       30.00R
ANTIGO         SUNNY     37  32  83 CALM      30.02R
TOMAHAWK       CLOUDY    43  31  63 CALM      30.02R
MERRILL        NOT AVBL
$$

WIZ013-073-191700-
NORTHEAST WISCONSIN

CITY           SKY/WX    TMP DP  RH WIND       PRES   REMARKS
IRON MOUNTAIN  CLOUDY    41  29  62 CALM      30.01R
MARINETTE      SUNNY     48  30  49 NW5       30.03R
OCONTO         SUNNY     47  31  52 NE3       30.04R
$$

WIZ017-030-035>037-045-191700-
CENTRAL WISCONSIN

CITY           SKY/WX    TMP DP  RH WIND       PRES   REMARKS
MEDFORD        SUNNY     42  33  70 E5        30.00S
WAUSAU         SUNNY     44  34  67 CALM      30.01R
MOSINEE        MOSUNNY   45  36  70 CALM      30.03R
MARSHFIELD     SUNNY     44  35  70 SE3       30.01R
WISC RAPIDS    SUNNY     48  36  63 CALM      30.04R
STEVENS POINT  SUNNY     42  32  68 CALM      30.03S
WAUPACA        SUNNY     51  35  54 CALM      30.04R
SHAWANO        SUNNY     50  32  51 CALM      30.04R
CLINTONVILLE   SUNNY     46  32  57 NE3       30.03R
WAUTOMA        SUNNY     48  36  63 CALM      30.04R
$$

WIZ038-039-048-051-191700-
FOX VALLEY

CITY           SKY/WX    TMP DP  RH WIND       PRES   REMARKS
NWS GREEN BAY  SUNNY     53  34  48 NE5       30.03S
APPLETON       MOSUNNY   48  32  53 CALM      30.02R
OSHKOSH        SUNNY     48  36  63 CALM      30.03R
FOND DU LAC    SUNNY     47  34  60 CALM      30.04R
$$

WIZ022-050-052-191700-
EAST CENTRAL WISCONSIN

CITY           SKY/WX    TMP DP  RH WIND       PRES   REMARKS
EPHRAIM        FAIR      45  32  61 N7        30.02R
WASHINGTON ISL FAIR      42  31  64 N6        30.02R
STURGEON BAY   SUNNY     47  31  53 NW6       30.04R
MANITOWOC      SUNNY     51  31  46 MISG      30.04R
SHEBOYGAN      SUNNY     51  34  52 CALM      30.04R
$$

LMZ563-521-522-541>543-191700-
LAKESHORE

STATION/POSITION TIME  TEMP    WIND        PRES    VSBY  WAVE
                       AIR SEA DIR/SP/G                  HT/PER
                 (UTC) (F)     (DEG/KT/KT) (MB)    (MI)  (FT/S)
SHEBOYGAN LKSHOR 1600   49     360/  6/  6 1017.2R
KEWAUNEE LKSHORE 1548   50      CALM  /  6 1016.6R
NORTHPORT PIER   1540   42     320/  8/  9 1016.9R
SISTER BAY LKSHO 1520             CALM       N/A
CHAMBERS ISLAND  1540   50     320/  4/  6 1016.6R
MENOMINEE LKSHOR 1548   45     340/  2/  3 1016.1R
$$




USA.gov is the U.S. government's official web portal to all federal, state and local government web resources and services.